Location: Bouchavesnes-Bergen
(49.9859°N, 2.9203°E)
Time: 04:48:50
(UTC+00:00)

Cosmos 1763 Rocket - Pass Details

Date: 09 March 2021
Orbit: 733 x 779 km, 74.0° (Epoch: 11 April)

Event Time Altitude Azimuth Distance (km) Brightness Sun altitude
Rises 05:16:19 0° 337° (NNW) 3,252 6.6 -10.2°
Reaches altitude 10° 05:18:45 10° 340° (NNW) 2,315 5.8 -9.8°
Maximum altitude 05:23:59 66° 63° (ENE) 830 4.0 -9.0°
Drops below altitude 10° 05:29:06 10° 146° (SE) 2,268 6.4 -8.2°
Sets 05:31:27 0° 149° (SSE) 3,181 7.1 -7.8°
